Flight Track Log - Related Links

Times and Time Zones

All times are in EDT time to prevent confusion due to time zone crossing. See the N27XP flight status page for this flight to view local times or setup timezone preferences in your user account.

Time Position Orientation Groundspeed Altitude Reporting Facility
EDT Latitude Longitude Course Direction KTS MPH feet Rate Location/Type
Sun 19:16:03 42.4667 -71.2667 160° South 162 186 1,100  Level KA90
Sun 19:17:03 42.4333 -71.2500 160° South 238 274 3,200 2,313 Climbing KA90
Sun 19:19:15 42.3228 -71.3983 225° Southwest 263 303 8,500 2,196 Climbing Boston Center
Sun 19:20:17 42.2650 -71.4611 219° Southwest 275 316 10,300 1,916 Climbing Boston Center
Sun 19:21:14 42.2008 -71.5292 218° Southwest 290 334 12,300 1,729 Climbing Boston Center
Sun 19:22:15 42.1325 -71.5975 217° Southwest 301 346 13,700 1,388 Climbing Boston Center
Sun 19:23:15 42.0603 -71.6683 216° Southwest 313 360 15,100 1,513 Climbing Boston Center
Sun 19:24:14 41.9897 -71.7444 219° Southwest 324 373 16,700 1,350 Climbing Boston Center
Sun 19:25:15 41.9153 -71.8208 217° Southwest 335 386 17,800 1,339 Climbing Boston Center
Sun 19:26:15 41.8364 -71.8967 216° Southwest 346 398 19,400 1,450 Climbing Boston Center
Sun 19:27:15 41.7639 -71.9753 219° Southwest 346 398 20,700 1,488 Climbing Boston Center
Sun 19:28:16 41.6892 -72.0508 217° Southwest 346 398 22,400 1,339 Climbing Boston Center
Sun 19:29:16 41.6308 -72.1097 217° Southwest 341 392 23,400 1,119 Climbing Boston Center
Sun 19:30:14 41.5497 -72.1933 218° Southwest 341 392 24,600 1,119 Climbing Boston Center
Sun 19:31:14 41.4728 -72.2683 216° Southwest 341 392 25,600 1,190 Climbing Boston Center
Sun 19:32:15 41.3897 -72.3517 217° Southwest 341 392 27,000 1,180 Climbing Boston Center
Sun 19:33:16 41.3106 -72.4289 216° Southwest 347 399 28,000 942 Climbing Boston Center
Sun 19:34:16 41.2353 -72.5036 217° Southwest 361 415 28,900 814 Climbing Boston Center
Sun 19:35:14 41.1542 -72.5833 217° Southwest 369 425 29,600 958 Climbing Boston Center
Sun 19:36:15 41.0725 -72.6658 217° Southwest 374 430 30,800 1,091 Climbing Boston Center
Sun 19:37:15 40.9892 -72.7453 216° Southwest 374 430 31,800 403 Climbing Boston Center
Sun 19:38:14 40.9033 -72.8272 216° Southwest 374 430 31,600 -344 Descending Boston Center
Sun 19:39:17 40.8114 -72.9200 217° Southwest 397 457 31,100 -450 Descending Boston Center
Sun 19:40:14 40.7192 -73.0042 215° Southwest 412 474 30,700 -410 Descending Boston Center
Sun 19:41:14 40.6250 -73.0936 216° Southwest 418 481 30,300 -347 Descending Boston Center
Sun 19:42:15 40.5308 -73.1828 216° Southwest 423 487 30,000 -104 Descending Boston Center
Sun 19:44:07 40.3489 -73.3678 218° Southwest 416 479 30,000  Level Washington Center
Sun 19:45:05 40.2547 -73.4578 216° Southwest 416 479 30,000  Level Washington Center
Sun 19:46:06 40.1792 -73.5306 216° Southwest 426 490 30,000 -50 Level Washington Center
Sun 19:47:06 40.0725 -73.6286 215° Southwest 432 497 29,900  Descending Washington Center
Sun 19:48:06 39.9758 -73.7206 216° Southwest 432 497 30,000 50 Climbing Washington Center
Sun 19:49:07 39.8794 -73.8097 215° Southwest 433 498 30,000  Level Washington Center
Sun 19:50:05 39.7828 -73.8986 215° Southwest 433 498 30,000  Level Washington Center
Sun 19:51:06 39.6839 -73.9900 215° Southwest 433 498 30,000 -49 Level Washington Center
Sun 19:52:07 39.5914 -74.0781 216° Southwest 433 498 29,900 -50 Descending Washington Center
Sun 19:53:05 39.4944 -74.1689 216° Southwest 433 498 29,900  Level Washington Center
Sun 19:54:06 39.3978 -74.2622 217° Southwest 433 498 29,900  Level Washington Center
Sun 19:55:06 39.3028 -74.3525 216° Southwest 433 498 29,900 50 Level Washington Center
Sun 19:56:07 39.2058 -74.4397 215° Southwest 433 498 30,000 50 Climbing Washington Center
Sun 19:57:07 39.1086 -74.5297 216° Southwest 433 498 30,000  Level Washington Center
Sun 19:58:05 39.0094 -74.6192 215° Southwest 433 498 30,000  Level Washington Center
Sun 19:59:07 38.9119 -74.7058 215° Southwest 433 498 30,000  Level Washington Center
Sun 20:00:06 38.8042 -74.8031 215° Southwest 433 498 30,000  Level Washington Center
Sun 20:01:08 38.7069 -74.8894 215° Southwest 433 498 30,000  Level Washington Center
Sun 20:02:06 38.6114 -74.9806 217° Southwest 433 498 30,000  Level Washington Center
Sun 20:03:07 38.5097 -75.0636 213° Southwest 433 498 30,000  Level Washington Center
Sun 20:04:06 38.4183 -75.1625 220° Southwest 433 498 30,000 -50 Level Washington Center
Sun 20:05:06 38.3292 -75.2636 222° Southwest 438 504 29,900  Descending Washington Center
Sun 20:06:07 38.2522 -75.3592 224° Southwest 432 497 30,000 50 Climbing Washington Center
Sun 20:07:05 38.1583 -75.4597 220° Southwest 437 503 30,000  Level Washington Center
Sun 20:08:06 38.0647 -75.5522 218° Southwest 437 503 30,000  Level Washington Center
Sun 20:09:06 37.9792 -75.6628 226° Southwest 437 503 30,000  Level Washington Center
Sun 20:10:05 37.8894 -75.7603 221° Southwest 437 503 30,000  Level Washington Center
Sun 20:11:06 37.7933 -75.8544 218° Southwest 437 503 30,000  Level Washington Center
Sun 20:12:06 37.7075 -75.9567 223° Southwest 437 503 30,000  Level Washington Center
Sun 20:13:07 37.6156 -76.0558 221° Southwest 437 503 30,000  Level Washington Center
Sun 20:14:05 37.5233 -76.1547 220° Southwest 443 510 30,000  Level Washington Center
Sun 20:15:05 37.4289 -76.2456 217° Southwest 443 510 30,000  Level Washington Center
Sun 20:16:06 37.3386 -76.3442 221° Southwest 438 504 30,000  Level Washington Center
Sun 20:17:05 37.2461 -76.4425 220° Southwest 438 504 30,000  Level Washington Center
Sun 20:18:05 37.1536 -76.5431 221° Southwest 438 504 30,000  Level Washington Center
Sun 20:19:05 37.0611 -76.6433 221° Southwest 438 504 30,000  Level Washington Center
Sun 20:20:06 36.9683 -76.7408 220° Southwest 438 504 30,000  Level Washington Center
Sun 20:21:07 36.8778 -76.8408 221° Southwest 438 504 30,000 50 Level Washington Center
Sun 20:22:07 36.7828 -76.9378 219° Southwest 438 504 30,100 -252 Climbing Washington Center
Sun 20:23:06 36.7003 -77.0453 226° Southwest 438 504 29,500 -864 Descending Washington Center
Sun 20:24:05 36.6317 -77.1708 236° Southwest 438 504 28,400 -1,008 Descending Washington Center
Sun 20:25:05 36.5592 -77.2933 234° Southwest 444 511 27,500 -984 Descending Washington Center
Sun 20:26:07 36.4886 -77.4133 234° Southwest 444 511 26,400 -1,200 Descending Washington Center
Sun 20:27:05 36.4178 -77.5331 234° Southwest 444 511 25,100 -1,424 Descending Washington Center
Sun 20:28:05 36.3450 -77.6550 233° Southwest 444 511 23,600 -1,438 Descending Washington Center
Sun 20:29:06 36.2739 -77.7692 232° Southwest 438 504 22,200 -1,279 Descending Washington Center
Sun 20:30:07 36.2050 -77.8831 233° Southwest 433 498 21,000 -1,210 Descending Washington Center
Sun 20:31:05 36.1342 -77.9942 232° Southwest 428 493 19,800 -1,714 Descending Washington Center
Sun 20:32:06 36.0650 -78.1025 232° Southwest 423 487 17,600 -2,612 Descending Washington Center
Sun 20:32:30 36.0286 -78.1553 230° Southwest 392 451 16,100 -3,250 Descending Washington Center
Sun 20:32:54 36.0089 -78.1906 235° Southwest 364 419 15,000 -3,000 Descending Washington Center
Sun 20:33:06 35.9981 -78.2133 240° Southwest 387 445 14,300 -2,613 Descending Washington Center
Sun 20:33:56 35.9486 -78.2808 228° Southwest 320 368 12,300 -2,339 Descending Washington Center
Sun 20:34:05 35.9442 -78.2911 242° Southwest 345 397 12,000 -2,556 Descending Washington Center
Sun 20:34:50 35.8964 -78.3664 232° Southwest 329 379 10,000 -1,900 Descending Washington Center
Sun 20:35:05 35.8856 -78.3917 242° Southwest 333 383 10,100 -103 Climbing Washington Center
Sun 20:35:48 35.8444 -78.4467 227° Southwest 300 345 9,900 -197 Descending Washington Center
Sun 20:36:06 35.8400 -78.4642 253° West 327 376 9,900  Level Washington Center
Sun 20:36:58 35.7858 -78.5469 231° Southwest 317 365 9,900  Level Washington Center
Sun 20:37:05 35.7878 -78.5494 314° West 321 369 9,900 -353 Level Washington Center
Sun 20:38:06 35.7333 -78.6369 233° Southwest 321 369 9,500 -885 Descending Washington Center
Sun 20:39:07 35.6833 -78.7169 232° Southwest 314 361 8,100 -1,388 Descending Washington Center
Sun 20:40:07 35.6336 -78.7892 230° Southwest 302 348 6,700 -1,119 Descending Washington Center
Sun 20:41:05 35.5875 -78.8664 234° Southwest 291 335 5,900 -850 Descending Washington Center
Sun 20:42:07 35.5397 -78.9383 231° Southwest 286 329 5,000 -871 Descending Washington Center
Sun 20:44:00 35.4044 -79.1095 234° Southwest  Level FlightAware Approximate
Sun 20:51:00 35.2333 -79.3833 239° Southwest  Level FlightAware Approximate

Login

Don't have an account? Register now (free) for customized features, flight alerts, and more!